Location: Driftpile
(55.3500°N, 115.7667°W)
Time: 13:07:43
(UTC+00:00)

ISS - Visible Passes

Search period start: 01 December 2021 00:00
Search period end: 11 December 2021 00:00
Orbit: 417 x 423 km, 51.6° (Epoch: 01 December)

Date Brightness Start Highest point End Pass type
(mag) Time Alt. Az. Time Alt. Az. Time Alt. Az.
01 Dec -2.8 00:38:24 10° WSW 00:41:40 44° S 00:44:34 12° ESE visible
01 Dec -2.0 02:15:03 10° W 02:17:34 30° SW 02:17:34 30° SW visible
02 Dec -2.6 01:27:52 10° W 01:31:04 38° SSW 01:32:21 26° SE visible
02 Dec -0.3 03:05:04 10° WSW 03:05:21 11° WSW 03:05:21 11° WSW visible
03 Dec -2.7 00:40:42 10° W 00:43:57 42° S 00:47:12 10° ESE visible
03 Dec -1.5 02:17:38 10° WSW 02:20:12 21° SSW 02:20:12 21° SSW visible
04 Dec -1.8 01:30:20 10° W 01:33:15 26° SSW 01:35:10 16° SSE visible
05 Dec -2.1 00:43:05 10° W 00:46:10 32° SSW 00:49:14 10° SE visible
05 Dec -0.8 02:20:52 10° WSW 02:22:16 12° SW 02:23:16 11° SSW visible
05 Dec -2.2 23:55:52 10° W 23:59:03 37° SSW 00:02:13 10° SE visible
06 Dec -0.9 01:33:05 10° WSW 01:35:16 16° SSW 01:37:27 10° S visible
07 Dec -1.2 00:45:36 10° WSW 00:48:14 21° SSW 00:50:52 10° SSE visible
07 Dec -1.4 23:58:15 10° W 00:01:09 26° SSW 00:04:03 10° SE visible
09 Dec -0.4 00:48:48 10° WSW 00:50:08 12° SW 00:51:27 10° SSW visible
10 Dec -0.6 00:00:56 10° WSW 00:03:06 16° SSW 00:05:15 10° S visible
